User: anonymous   Login
Location: *
(37.5724°S, 58.0067°E)
Time: 04:24:41
(UTC+00:00)
Language:

SL-16 R/B - Orbit

View from above orbital plane
View from above orbital plane
View from above satellite
View from above satellite

Ground track
Ground track

The orbit data is extracted from the following two-line orbital elements,

1 28353U 04021B   20336.34364329 -.00000050 +00000-0 -10323-5 0  9997
2 28353 070.9996 309.3062 0002810 077.8007 282.3430 14.14232932850732
Epoch (UTC): 01 December 2020 08:14:50
Eccentricity: 0.0002810
inclination: 70.9996°
perigee height: 843 km
apogee height: 847 km
right ascension of ascending node: 309.3062°
argument of perigee: 77.8007°
revolutions per day: 14.14232932
mean anomaly at epoch: 282.3430°
orbit number at epoch: 85073

The dashed part of the orbit path shows where the satellite is in the earth's shadow,  

DLR